User: anonymous   Login
Location: Newark
(32.9533°N, 113.4900°W)
Time: 10:21:33
(UTC+00:00)
Language:

N. Korean satellite - Orbit

View from above orbital plane
View from above orbital plane
View from above satellite
View from above satellite

Ground track
Ground track

The orbit data is extracted from the following two-line orbital elements,

1 39026U 12072A   19139.79703025  .00001063  00000-0  41134-4 0  9995
2 39026  97.2110 143.9165 0037328 205.1143 154.8283 15.27740768357036
Epoch (UTC): 19 May 2019 19:07:43
Eccentricity: 0.0037328
inclination: 97.2110°
perigee height: 457 km
apogee height: 508 km
right ascension of ascending node: 143.9165°
argument of perigee: 205.1143°
revolutions per day: 15.27740768
mean anomaly at epoch: 154.8283°
orbit number at epoch: 35703

The dashed part of the orbit path shows where the satellite is in the earth's shadow,  

DLR